EW7060 Weather Reports


time (UTC)temp
C
wind
direction
speed
KPH
gust
KPH
rain 1hr
cm
rain 24hr
cm
rain mn
cm
humidity
%
barometer
mb
20260510022058 16 45 0.0 0.0 0.00 0.00 0.00 66 1011.8
20260510021055 16 270 0.0 0.0 0.00 0.00 0.00 65 1011.7
20260510020059 16 270 0.0 0.0 0.00 0.00 0.00 65 1011.5
20260510015036 16 270 0.0 0.0 0.00 0.00 0.00 65 1011.4
20260510014059 16 270 0.0 0.0 0.00 0.00 0.00 65 1011.3
20260510013034 16 270 0.0 0.0 0.00 0.00 0.00 64 1011.3
20260510012139 16 270 0.0 0.0 0.00 0.00 0.00 64 1011.0
20260510011034 16 270 0.0 0.0 0.00 0.00 0.00 64 1010.8
20260510010058 17 270 0.0 0.0 0.00 0.00 0.00 63 1010.7
20260510005035 17 270 0.0 0.0 0.00 0.00 0.00 63 1010.6
20260510004140 17 270 0.0 0.0 0.00 0.00 0.00 63 1010.5
20260510003055 17 270 0.0 0.0 0.00 0.00 0.00 63 1010.5
20260510002059 17 270 0.0 0.0 0.00 0.00 0.00 63 1010.4
20260510001035 18 270 0.0 0.0 0.00 0.00 0.00 62 1010.3
20260510000056 18 270 0.0 0.0 0.00 0.00 0.00 63 1010.4
20260509235035 18 270 0.0 0.0 0.00 0.00 0.00 62 1010.4
20260509234058 18 270 0.0 0.0 0.00 0.00 0.00 60 1010.3
20260509233119 19 270 0.0 0.0 0.00 0.00 0.00 59 1010.1
20260509232058 19 270 0.0 0.0 0.00 0.00 0.00 59 1009.9
20260509231034 20 270 0.0 0.0 0.00 0.00 0.00 57 1010.0
20260509230059 20 270 0.0 0.0 0.00 0.00 0.00 55 1009.9
20260509225034 21 225 0.0 0.0 0.00 0.00 0.00 53 1009.9
20260509224058 21 225 0.0 0.0 0.00 0.00 0.00 52 1010.0
20260509223035 22 225 0.0 0.0 0.00 0.00 0.00 51 1010.0
20260509222119 23 225 0.0 3.2 0.00 0.00 0.00 46 1009.9
20260509221035 23 225 0.0 0.0 0.00 0.00 0.00 42 1010.1
20260509220059 23 253 1.6 4.8 0.00 0.00 0.00 42 1009.9
20260509215055 23 180 0.0 1.6 0.00 0.00 0.00 42 1010.1
20260509214058 23 178 1.6 4.8 0.00 0.00 0.00 40 1010.0
20260509213034 24 221 1.6 3.2 0.00 0.00 0.00 36 1010.0
20260509212058 25 239 1.6 4.8 0.00 0.00 0.00 39 1009.8
20260509211034 24 322 1.6 3.2 0.00 0.00 0.00 40 1009.7
20260509210058 23 248 0.0 3.2 0.00 0.00 0.00 42 1009.8
20260509205034 24 270 0.0 3.2 0.00 0.00 0.00 40 1009.7
20260509204058 26 224 1.6 4.8 0.00 0.00 0.00 35 1009.7
20260509203035 26 241 1.6 6.4 0.00 0.00 0.00 36 1009.9
20260509202058 25 254 1.6 4.8 0.00 0.00 0.00 40 1009.8
20260509201032 25 177 1.6 8.0 0.00 0.00 0.00 38 1009.7
20260509200058 25 248 0.0 6.4 0.00 0.00 0.00 41 1009.9
20260509195034 24 224 3.2 6.4 0.00 0.00 0.00 43 1010.0
20260509194059 23 242 3.2 8.0 0.00 0.00 0.00 46 1010.3
20260509193034 22 243 1.6 3.2 0.00 0.00 0.00 49 1010.5
20260509192059 22 199 3.2 8.0 0.00 0.00 0.00 48 1010.7
20260509191035 23 225 1.6 4.8 0.00 0.00 0.00 46 1010.8
20260509190058 23 268 1.6 6.4 0.00 0.00 0.00 47 1010.8
20260509185034 -17 0.0 0.0 0.00 0.00 0.00 1011.1
20260509184118 22 234 3.2 8.0 0.00 0.00 0.00 48 1011.2
20260509183036 21 154 1.6 3.2 0.00 0.00 0.00 50 1011.1
20260509182059 21 45 0.0 3.2 0.00 0.00 0.00 52 1011.1
20260509181034 20 315 0.0 3.2 0.00 0.00 0.00 52 1011.3
20260509180058 20 216 1.6 6.4 0.00 0.00 0.00 51 1011.7
20260509175035 20 125 1.6 4.8 0.00 0.00 0.00 51 1011.9
20260509174119 21 192 1.6 6.4 0.00 0.00 0.00 50 1012.1
20260509173034 21 216 3.2 8.0 0.00 0.00 0.00 47 1012.2
20260509172058 21 128 1.6 8.0 0.00 0.00 0.00 49 1012.2
20260509171035 21 236 1.6 6.4 0.00 0.00 0.00 49 1012.1
20260509170056 21 173 1.6 6.4 0.00 0.00 0.00 49 1012.2
20260509165035 21 210 1.6 6.4 0.00 0.00 0.00 49 1012.2
20260509164058 20 113 0.0 3.2 0.00 0.00 0.00 51 1012.3
20260509163034 20 225 1.6 8.0 0.00 0.00 0.00 49 1012.3
20260509162140 21 193 1.6 8.0 0.00 0.00 0.00 49 1012.3
20260509161034 20 302 1.6 6.4 0.00 0.00 0.00 49 1012.3
20260509160100 20 113 1.6 3.2 0.00 0.00 0.00 50 1012.3
20260509155034 20 245 1.6 8.0 0.00 0.00 0.00 50 1012.3
20260509154119 19 214 1.6 8.0 0.00 0.00 0.00 52 1012.4
20260509153035 18 30 1.6 3.2 0.00 0.00 0.00 52 1012.4
20260509152058 18 253 1.6 4.8 0.00 0.00 0.00 52 1012.6
20260509151034 18 145 1.6 4.8 0.00 0.00 0.00 53 1012.5
20260509150058 18 174 1.6 6.4 0.00 0.00 0.00 52 1012.6
20260509145034 18 197 1.6 6.4 0.00 0.00 0.00 53 1012.7
20260509144056 17 66 1.6 6.4 0.00 0.00 0.00 51 1012.8
20260509143034 17 191 1.6 6.4 0.00 0.00 0.00 52 1012.9
20260509142058 16 104 1.6 3.2 0.00 0.00 0.00 53 1013.1
20260509141053 16 198 3.2 9.7 0.00 0.00 0.00 53 1013.2
20260509140058 16 209 1.6 8.0 0.00 0.00 0.00 55 1013.2
20260509135032 15 293 0.0 3.2 0.00 0.00 0.00 59 1013.1
20260509134059 14 225 0.0 4.8 0.00 0.00 0.00 61 1013.1
20260509133034 14 90 0.0 1.6 0.00 0.00 0.00 63 1013.1
20260509132058 13 0 0.0 0.0 0.00 0.00 0.00 63 1013.2
20260509131034 13 0 0.0 0.0 0.00 0.00 0.00 63 1013.4
20260509130059 13 0 0.0 0.0 0.00 0.00 0.00 63 1013.2
20260509125033 13 326 1.6 3.2 0.00 0.00 0.00 63 1013.1
20260509124058 13 180 0.0 8.0 0.00 0.00 0.00 62 1013.0
20260509123034 13 210 1.6 8.0 0.00 0.00 0.00 62 1013.1
20260509122057 13 0 0.0 3.2 0.00 0.00 0.00 62 1013.0
20260509121054 13 180 0.0 1.6 0.00 0.00 0.00 62 1013.1
20260509120058 13 0 0.0 1.6 0.00 0.00 0.00 62 1013.0
20260509115035 13 45 0.0 1.6 0.00 0.00 0.00 61 1013.0
20260509114058 13 338 0.0 3.2 0.00 0.00 0.00 59 1013.0
20260509113034 13 0 0.0 1.6 0.00 0.00 0.00 57 1012.9
20260509112059 13 360 0.0 3.2 0.00 0.00 0.00 54 1012.7
20260509111034 14 156 1.6 6.4 0.00 0.00 0.00 53 1012.4
20260509110118 15 135 0.0 3.2 0.00 0.00 0.00 48 1012.4
20260509105034 15 79 1.6 3.2 0.00 0.00 0.00 47 1012.2
20260509104057 15 174 1.6 8.0 0.00 0.00 0.00 47 1012.2
20260509103035 15 319 3.2 17.7 0.00 0.00 0.00 50 1012.3
20260509102058 14 72 1.6 6.4 0.00 0.00 0.00 51 1012.3
20260509101034 13 161 1.6 9.7 0.00 0.00 0.00 54 1012.4
20260509100059 13 85 1.6 4.8 0.00 0.00 0.00 54 1012.4
20260509095035 13 140 1.6 6.4 0.00 0.00 0.00 54 1012.4
20260509094139 13 198 1.6 3.2 0.00 0.00 0.00 54 1012.4
20260509093035 13 187 1.6 6.4 0.00 0.00 0.00 55 1012.5
20260509092058 13 210 1.6 3.2 0.00 0.00 0.00 55 1012.7
20260509091033 13 217 1.6 4.8 0.00 0.00 0.00 54 1012.8
20260509090058 13 217 1.6 8.0 0.00 0.00 0.00 54 1012.8
20260509085034 13 190 3.2 6.4 0.00 0.00 0.00 53 1012.8
20260509084119 13 135 1.6 4.8 0.00 0.00 0.00 54 1012.9
20260509083034 13 205 1.6 4.8 0.00 0.00 0.00 54 1012.9
20260509082117 13 225 1.6 8.0 0.00 0.00 0.00 54 1013.1
20260509081054 13 203 1.6 4.8 0.00 0.00 0.00 53 1013.0
20260509080057 13 212 3.2 8.0 0.00 0.00 0.00 52 1013.1
20260509075032 14 193 1.6 4.8 0.00 0.00 0.00 51 1013.2
20260509074058 14 188 3.2 12.9 0.00 0.00 0.00 50 1013.1
20260509073034 14 235 3.2 12.9 0.00 0.00 0.00 49 1013.0
20260509072058 14 172 1.6 3.2 0.00 0.00 0.00 51 1013.1
20260509071033 13 180 1.6 4.8 0.00 0.00 0.00 52 1013.1
20260509070058 13 210 0.0 4.8 0.00 0.00 0.00 53 1013.1
20260509065035 13 225 0.0 3.2 0.00 0.00 0.00 54 1013.1
20260509064117 13 225 0.0 3.2 0.00 0.00 0.00 54 1013.2
20260509063034 13 90 0.0 3.2 0.00 0.00 0.00 53 1013.2
20260509062058 13 248 0.0 3.2 0.00 0.00 0.00 52 1013.4
20260509061034 14 135 0.0 3.2 0.00 0.00 0.00 51 1013.6
20260509055034 15 180 1.6 4.8 0.00 0.00 0.00 44 1013.6
20260509054058 15 238 1.6 6.4 0.00 0.00 0.00 44 1013.5
20260509053033 15 167 1.6 3.2 0.00 0.00 0.00 45 1013.6
20260509052059 15 188 3.2 8.0 0.00 0.00 0.00 46 1013.6
20260509051033 15 193 3.2 8.0 0.00 0.00 0.00 48 1013.8
20260509050058 14 245 1.6 6.4 0.00 0.00 0.00 50 1013.6
20260509045033 14 279 1.6 8.0 0.00 0.00 0.00 51 1013.6
20260509044117 13 310 1.6 4.8 0.00 0.00 0.00 52 1013.6
20260509043054 13 193 1.6 6.4 0.00 0.00 0.00 52 1013.7
20260509042058 13 203 1.6 3.2 0.00 0.00 0.00 54 1013.7
20260509041033 13 207 1.6 4.8 0.00 0.00 0.00 55 1013.8
20260509035034 12 180 0.0 3.2 0.00 0.00 0.00 55 1013.8
20260509034058 13 225 0.0 0.0 0.00 0.00 0.00 54 1013.8
20260509033052 13 45 0.0 0.0 0.00 0.00 0.00 54 1013.9
20260509032058 13 225 0.0 0.0 0.00 0.00 0.00 54 1014.0
20260509031053 13 198 0.0 3.2 0.00 0.00 0.00 53 1014.0
20260509030059 13 225 0.0 3.2 0.00 0.00 0.00 53 1014.1
20260509025033 13 225 0.0 1.6 0.00 0.00 0.00 52 1014.1
20260509024119 14 225 0.0 0.0 0.00 0.00 0.00 52 1014.2
20260509023034 14 225 0.0 3.2 0.00 0.00 0.00 51 1014.1